GFSSGP_700_rhum_105.txt.gz
RH
4 4 6 8 8 9 9 8 12 17 18 20 19 21 20 20 16 16 15 17 32 40 36 29 29 29 28 15 18 22 49 72 78 67 66 62 72 62 67 67 64 58 54 49 29 22 33 35 17
4 5 6 9 8 10 10 8 13 17 18 18 20 20 19 18 17 15 15 18 28 30 24 26 30 30 24 19 21 26 29 58 90 83 73 70 70 73 74 69 65 63 63 51 25 20 9 17 18
4 5 8 10 9 10 8 11 20 19 18 18 18 20 18 17 17 15 16 19 23 23 25 30 33 22 21 18 26 28 31 46 80 80 77 78 82 81 83 78 73 68 72 58 52 40 30 17 23
5 7 8 9 6 7 7 17 21 22 21 21 20 20 18 18 18 16 17 19 24 27 29 30 26 26 24 22 23 26 30 35 54 77 75 80 80 88 80 89 81 71 78 80 62 58 41 19 22
8 9 10 8 6 6 7 20 21 20 22 23 22 20 19 19 19 16 18 21 26 29 31 25 25 30 30 25 23 28 29 29 32 35 50 80 94 87 93 83 89 88 77 88 74 66 59 26 29
15 12 12 9 7 6 6 9 22 17 15 21 22 21 19 18 19 17 19 22 27 30 31 26 29 30 29 31 23 22 23 24 26 29 37 40 54 77 99 71 98 93 94 87 83 81 82 20 19
22 16 12 10 8 7 7 7 7 9 18 20 20 19 20 19 20 19 20 22 26 25 28 28 30 32 32 20 17 19 21 24 27 30 39 43 49 74 84 99 93 94 92 84 92 82 81 64 32
26 22 18 13 12 10 10 9 9 13 21 19 19 20 19 21 20 18 20 23 25 24 28 28 30 32 29 19 20 22 24 27 30 37 38 41 48 51 64 74 86 96 89 91 94 94 86 79 76
28 30 26 19 16 14 12 12 10 14 22 21 22 23 22 25 22 20 20 22 22 22 24 27 29 33 29 22 20 25 27 30 34 38 38 40 40 40 41 50 61 72 82 100 99 84 92 91 91
30 30 29 25 22 19 16 14 15 15 24 24 24 29 27 24 27 25 23 22 23 24 24 26 32 33 30 26 24 25 27 28 30 33 39 40 34 33 30 36 40 44 55 83 76 70 82 97 96
33 32 30 28 26 23 21 19 17 16 17 23 25 27 27 27 25 23 22 22 20 22 26 31 34 34 29 26 28 32 30 29 30 32 35 39 35 24 21 24 27 28 36 92 73 86 96 99 99
35 34 33 31 29 27 25 24 22 20 18 17 20 24 25 24 23 22 21 21 21 20 24 29 36 35 30 28 27 32 29 30 32 35 29 24 28 29 26 28 78 50 98 74 93 99 98 99 99
36 35 34 31 31 30 29 28 27 26 25 19 16 18 24 26 23 22 23 22 22 22 23 23 27 28 28 30 28 32 30 27 31 37 32 28 17 22 48 44 58 66 87 95 89 98 99 98 81
36 37 36 33 32 32 31 30 30 29 27 26 22 21 19 26 26 26 26 24 25 25 23 26 27 26 26 28 28 34 36 30 34 36 32 23 16 22 25 54 63 82 99 98 87 99 99 100 63
32 38 38 37 36 36 36 34 32 31 30 30 29 30 28 24 27 27 27 26 27 27 26 24 27 28 27 26 29 32 37 34 34 34 30 16 13 20 22 49 74 99 98 99 99 98 100 100 66
32 33 37 39 38 36 37 33 35 32 32 32 34 35 35 33 30 28 28 27 27 27 26 29 26 27 28 26 27 30 36 40 34 31 20 13 14 18 27 51 88 100 96 98 100 100 100 100 69
44 47 46 42 40 40 36 33 35 32 34 34 36 36 38 37 37 34 32 30 29 28 29 29 28 26 27 27 26 28 34 36 35 28 16 15 17 22 30 64 85 99 100 98 100 100 100 100 52
40 44 44 47 44 41 38 36 39 39 40 41 40 39 38 37 35 33 33 33 31 29 30 28 26 26 27 28 25 29 36 33 34 24 14 16 26 42 42 71 95 99 100 98 99 100 100 99 65
30 33 39 40 43 45 39 38 42 41 37 37 36 34 34 35 34 34 36 34 32 31 30 27 25 25 27 26 29 33 38 35 34 21 14 18 40 66 61 75 94 99 98 98 100 100 100 98 90
23 29 41 46 46 42 36 32 32 27 22 21 20 20 21 21 22 26 30 32 33 32 29 26 23 23 24 26 28 30 41 37 36 19 14 19 43 65 74 81 93 96 100 100 100 100 100 99 92
23 27 40 41 32 32 32 20 16 17 18 17 16 15 14 17 20 20 19 23 27 30 30 26 25 23 23 26 26 31 45 41 38 17 15 19 34 56 77 94 99 98 100 94 100 100 100 99 88
19 17 20 23 44 36 19 18 21 22 19 19 22 24 24 24 27 25 22 20 23 30 30 28 26 24 23 26 26 40 50 47 40 16 15 17 29 62 78 96 99 100 91 92 99 100 100 100 95
20 19 20 19 25 27 30 36 30 32 21 23 27 32 25 25 31 30 34 22 18 26 31 29 26 25 25 26 27 43 54 52 41 14 16 20 45 68 85 94 98 100 100 100 100 100 99 99 100
31 40 41 46 41 47 43 38 34 32 31 32 35 27 25 23 28 29 27 29 22 18 24 30 27 26 27 26 27 42 56 53 34 15 17 34 60 73 76 96 96 97 100 100 100 100 100 100 100
52 44 52 66 56 48 37 41 34 37 36 33 31 26 27 31 35 33 31 22 29 37 25 30 28 28 27 28 27 43 58 53 20 16 22 56 67 79 84 94 94 99 96 100 99 100 99 99 96
50 45 42 47 60 44 46 44 42 41 42 39 38 40 39 40 34 33 34 34 26 43 32 29 30 29 28 30 36 47 61 45 16 17 34 60 72 75 80 80 91 98 100 90 100 100 100 95 82
51 50 42 41 54 52 46 48 42 40 40 45 49 42 37 34 34 34 35 34 30 37 39 33 31 30 31 35 44 51 60 26 17 18 30 62 78 78 76 76 78 89 88 99 100 100 99 100 100
32 39 49 50 53 50 43 49 43 41 43 43 45 43 41 36 40 40 42 34 51 49 43 34 32 33 35 39 50 60 61 17 19 20 34 66 78 80 75 71 71 75 96 94 100 98 100 100 100
39 36 39 41 45 38 43 36 44 47 50 45 43 47 44 38 41 43 73 72 63 52 43 35 34 34 36 42 56 67 41 18 22 21 29 64 79 71 68 69 75 99 99 99 100 100 100 100 100
58 55 48 42 51 52 43 39 44 50 52 53 49 47 42 48 53 64 99 79 64 50 41 34 35 36 38 52 64 66 20 19 24 24 27 55 74 75 78 78 79 95 99 100 99 98 99 99 100

GFSSGP_700_rhum_111.txt.gz
RH
4 4 4 6 20 14 9 9 8 11 15 17 18 22 22 22 25 31 20 15 14 14 21 32 32 26 20 13 12 14 25 42 53 59 61 59 68 70 71 64 63 60 56 55 55 44 31 46 45
4 4 4 20 17 10 9 8 10 9 15 22 13 22 20 25 29 28 16 15 15 16 30 25 22 18 9 8 14 16 27 46 59 71 57 64 62 73 69 63 69 64 62 61 60 46 41 38 26
5 4 22 17 15 10 8 8 9 12 18 21 20 20 21 24 34 39 23 15 16 18 22 23 20 14 10 8 16 22 25 34 56 68 69 68 69 69 69 72 78 70 69 65 68 64 63 52 37
15 6 20 21 13 11 10 9 10 17 19 20 19 21 25 36 41 33 16 15 16 19 23 23 18 17 14 10 13 21 26 28 35 48 69 68 71 69 69 68 81 82 79 74 77 72 72 67 44
27 25 19 14 12 10 10 11 13 16 16 20 20 18 23 29 33 45 17 16 16 20 23 24 20 21 18 16 14 16 21 24 27 28 35 39 51 59 68 78 85 76 78 81 83 86 79 69 67
35 28 22 16 13 12 10 14 14 18 17 19 23 20 21 40 19 31 18 16 16 21 23 24 23 22 22 19 17 21 24 26 26 28 31 35 45 52 64 77 88 91 80 85 79 81 73 69 75
38 26 20 17 14 11 11 16 15 17 18 17 20 20 22 38 38 19 19 16 17 20 21 23 24 24 23 22 19 19 24 25 24 26 36 47 52 54 51 69 75 80 82 90 77 84 82 74 88
39 34 27 22 19 14 12 15 16 14 16 16 22 20 20 37 26 20 20 17 17 20 21 23 25 26 26 24 22 20 21 22 24 27 29 41 52 49 51 55 60 71 82 88 81 88 88 88 95
41 36 31 26 23 19 16 17 18 17 12 18 20 21 28 32 27 20 20 18 17 19 21 22 24 25 28 28 25 22 21 24 26 28 31 35 50 50 53 58 61 65 72 77 80 91 90 92 95
41 37 34 28 24 21 20 20 19 20 18 19 26 30 26 22 21 20 21 18 18 19 21 23 24 25 27 30 29 26 24 24 26 28 30 33 36 42 46 49 48 54 56 57 64 76 82 86 81
40 38 35 30 28 25 23 22 22 21 20 17 23 26 33 38 37 42 57 50 18 20 22 25 25 29 29 32 33 32 27 26 29 30 30 32 35 44 47 46 53 58 55 49 48 52 66 66 90
42 41 39 37 32 30 28 28 25 23 23 20 19 22 30 33 36 43 50 57 60 33 20 22 25 26 28 34 35 40 34 29 30 27 29 32 38 43 45 41 43 49 56 50 39 48 53 60 90
38 39 40 39 36 35 34 33 30 29 26 26 26 24 29 30 29 36 41 44 47 58 61 20 21 21 22 26 30 39 30 33 32 35 32 31 37 37 37 39 43 34 32 36 40 46 56 59 68
35 39 38 40 39 39 40 37 36 34 35 33 33 33 30 28 28 30 36 40 44 48 61 32 19 20 21 23 26 29 40 28 32 34 39 37 35 36 30 38 41 46 44 42 56 62 78 75 89
35 33 34 35 37 40 41 40 37 37 36 38 32 35 33 31 28 30 31 37 40 42 52 40 20 20 22 22 25 27 32 32 32 35 33 45 36 38 25 18 37 45 49 48 62 66 94 76 90
38 35 33 31 32 34 38 31 31 31 33 34 33 34 34 33 30 29 31 33 36 48 52 27 23 24 24 25 25 24 28 27 29 33 32 38 41 38 27 14 23 41 51 61 65 65 81 93 97
40 36 34 32 30 29 31 31 30 30 33 34 35 35 35 35 35 37 35 34 35 41 51 53 26 26 26 27 27 27 26 27 27 27 29 34 42 36 28 14 14 17 38 62 68 67 99 99 99
37 37 33 29 27 29 30 33 33 31 32 32 34 36 36 37 38 39 39 38 39 42 47 40 28 27 27 28 29 30 30 29 28 24 33 34 44 38 30 14 15 19 30 46 60 70 93 100 100
36 36 33 34 30 38 39 38 34 33 34 36 39 40 39 39 38 38 38 40 41 37 37 28 28 29 28 29 29 29 30 30 27 25 35 34 42 41 32 14 15 19 48 52 61 84 100 95 98
38 38 46 36 37 39 36 36 34 32 32 32 35 38 38 36 36 37 37 40 38 34 34 34 33 32 32 30 30 29 29 28 27 27 33 35 40 42 36 15 15 20 54 61 67 95 100 98 100
34 38 44 35 36 39 35 35 30 26 27 29 32 34 30 26 25 28 34 62 59 30 32 34 33 33 32 32 31 30 29 27 27 29 32 37 44 43 41 16 16 20 56 71 81 97 100 99 100
28 38 42 47 52 54 49 38 28 26 20 21 22 21 21 22 25 32 53 67 72 18 17 18 20 25 30 32 32 31 29 24 26 28 30 32 46 47 44 16 16 21 45 83 85 94 98 99 98
32 41 53 52 49 42 35 40 30 20 17 20 21 23 29 38 55 55 64 65 65 49 26 21 22 19 19 22 30 31 30 24 26 28 29 30 46 50 45 16 17 28 51 79 90 98 98 99 100
39 42 41 40 41 36 32 26 22 20 22 18 20 30 48 60 62 60 62 65 55 70 24 23 24 24 20 20 24 31 31 25 25 26 28 31 50 53 37 15 19 42 66 83 90 100 100 99 99
47 54 55 56 48 41 28 25 21 19 23 26 35 49 61 64 63 64 63 64 67 48 22 19 21 20 23 18 21 30 31 26 25 27 27 35 52 53 22 16 35 62 81 88 100 99 100 99 100
44 42 58 60 52 36 27 28 23 21 27 33 44 54 58 61 67 64 69 83 51 58 22 20 18 21 20 19 21 28 31 28 25 26 27 39 54 48 16 19 54 67 78 94 94 92 98 99 99
40 35 36 43 46 46 37 29 40 30 34 53 51 48 50 57 62 76 89 64 26 27 24 20 19 16 21 18 25 28 31 28 25 27 28 47 50 28 16 25 60 67 71 82 88 98 98 93 90
37 35 36 39 37 34 22 28 30 37 43 50 47 52 55 67 76 87 93 51 31 36 38 27 25 20 17 19 26 28 31 29 28 28 37 51 47 16 18 34 64 70 70 73 91 98 97 99 99
29 34 33 29 26 27 29 28 39 44 47 52 50 57 62 74 89 90 97 48 49 44 36 30 22 37 20 18 33 30 32 32 29 31 47 49 28 18 18 38 68 70 72 75 90 99 95 100 100
19 28 31 28 26 25 31 63 43 50 50 54 56 67 77 85 91 92 62 64 60 51 41 35 35 50 45 29 41 36 38 35 34 43 56 48 17 19 20 53 67 66 69 73 99 100 98 100 99

GFSSGP_700_rhum_114.txt.gz
RH
4 4 4 4 27 22 14 12 10 7 10 12 14 16 18 22 25 37 57 33 18 15 14 14 17 19 17 15 9 10 15 22 36 43 54 60 52 58 58 59 59 61 60 58 58 52 29 33 46
4 4 4 28 25 16 12 11 8 8 10 14 14 17 20 24 25 30 30 21 17 15 14 15 16 18 12 7 5 9 13 25 41 45 61 54 61 61 62 59 61 66 65 63 63 58 40 42 33
14 4 37 29 20 18 12 8 8 10 14 13 17 15 19 21 30 33 34 30 16 15 14 16 16 16 10 6 6 10 12 21 40 61 53 65 62 62 71 66 67 73 75 69 67 69 71 65 41
20 11 35 26 18 13 13 11 10 11 14 14 14 19 19 24 33 37 30 17 16 15 15 16 18 16 11 9 7 10 15 15 26 50 56 66 64 71 67 62 68 72 80 77 76 84 89 64 65
24 33 29 20 16 16 13 11 10 11 15 16 16 17 21 24 38 40 35 17 16 15 17 18 19 16 14 12 12 10 15 19 22 27 39 41 58 67 73 71 74 66 73 73 79 80 85 78 67
28 28 30 22 18 15 12 11 11 13 15 16 19 17 19 27 26 50 35 18 16 15 17 19 20 18 18 16 15 17 17 18 19 22 26 31 42 60 63 85 79 82 80 81 82 74 83 77 71
49 36 29 24 18 16 13 11 12 13 16 16 18 19 20 32 33 34 28 18 17 16 18 20 21 21 21 20 19 18 22 24 26 27 28 32 44 57 60 59 66 76 82 81 85 79 75 84 83
49 40 30 24 21 18 15 14 14 15 14 17 16 17 19 26 41 29 22 19 17 16 17 21 22 23 24 22 22 21 20 21 23 25 26 29 36 45 54 61 63 62 68 76 83 82 80 91 95
49 46 38 31 26 23 20 18 15 16 15 13 15 19 25 33 44 36 27 19 19 17 17 20 22 23 25 26 25 23 22 21 22 24 26 28 30 39 45 52 56 61 65 69 67 79 82 91 96
49 46 38 33 28 25 22 20 18 18 18 16 14 20 24 23 36 34 29 23 20 18 17 20 22 22 24 24 28 27 24 23 23 25 27 29 30 33 38 43 49 48 52 53 51 50 67 84 90
43 39 38 35 30 28 25 22 20 19 18 19 17 20 25 33 25 29 29 40 23 18 17 19 21 22 24 23 25 30 29 26 24 26 27 29 31 33 37 44 47 49 56 58 51 44 49 60 66
40 42 40 36 33 31 27 26 23 22 21 20 18 19 23 26 34 33 36 69 66 43 18 19 19 22 24 25 21 25 30 34 26 26 26 28 27 30 36 43 43 41 43 48 56 46 46 55 55
36 36 38 37 36 35 34 31 28 26 24 23 22 20 23 30 31 38 47 59 59 60 59 50 26 19 21 24 23 27 22 34 28 27 34 36 35 32 34 38 38 39 43 42 34 40 45 51 54
34 35 36 35 36 36 36 34 32 32 29 27 27 24 22 24 27 29 35 42 47 52 55 57 57 36 20 20 23 21 23 26 36 28 34 35 38 40 35 36 30 38 43 47 51 49 50 57 59
41 39 38 35 34 37 36 36 36 35 33 33 26 30 30 29 29 28 28 31 39 43 45 51 55 59 31 20 20 22 24 24 27 30 33 36 34 37 39 35 31 24 41 54 56 50 52 67 76
37 37 37 37 32 33 34 37 37 36 37 36 35 34 32 34 34 30 29 28 32 32 37 45 49 56 35 21 21 22 23 24 25 26 29 36 36 34 40 36 31 20 24 50 52 59 60 63 76
39 36 36 35 33 30 32 33 34 36 32 32 32 32 34 34 34 33 30 29 29 33 38 43 52 57 37 24 24 25 25 26 26 26 27 29 32 35 37 38 34 17 15 22 47 54 64 71 69
39 39 35 33 32 31 30 30 31 31 30 31 32 32 33 33 32 33 32 31 32 33 33 39 50 57 47 28 27 27 27 26 28 29 28 27 26 32 36 38 38 18 13 16 22 30 57 72 62
36 33 34 35 34 32 30 32 28 27 29 30 30 32 34 36 36 37 37 36 38 38 36 41 49 58 58 23 25 28 28 27 28 31 32 29 26 33 36 39 40 30 13 15 26 44 55 79 84
33 31 32 32 33 41 42 45 33 31 32 31 33 33 34 36 36 36 37 38 39 40 40 41 42 45 46 32 28 31 32 30 28 30 31 30 27 31 36 41 42 40 14 14 18 52 60 59 89
27 30 33 34 37 74 57 56 38 36 34 32 32 34 36 38 38 37 37 39 40 40 40 40 40 38 36 36 35 34 32 31 29 29 30 28 27 32 36 42 45 45 20 13 17 42 68 68 91
24 26 32 34 40 84 57 42 35 33 33 29 28 28 31 36 35 32 28 35 38 39 35 36 36 35 35 36 35 34 30 32 30 29 29 28 28 32 32 40 47 49 25 15 17 36 78 79 90
22 23 28 36 51 69 59 48 42 41 39 35 30 21 24 29 26 22 29 38 62 73 67 68 19 18 19 20 21 23 27 30 32 30 30 27 28 30 31 36 48 51 24 16 20 36 78 83 97
22 32 41 47 52 56 51 47 39 38 37 33 26 22 21 22 27 30 45 62 67 66 71 72 38 23 22 20 21 17 16 19 25 31 30 26 28 30 30 34 51 54 20 17 34 54 75 90 100
34 39 51 66 57 58 45 44 41 27 26 30 24 21 32 42 60 62 65 64 64 69 77 88 33 20 18 18 22 21 17 16 22 31 31 26 27 29 29 37 53 50 16 22 55 69 79 91 99
42 42 53 55 55 43 38 36 35 29 22 24 28 45 60 70 64 62 65 69 77 69 51 32 21 17 16 16 14 19 21 18 23 32 32 27 26 28 29 41 53 32 17 32 61 70 82 99 98
43 45 48 50 62 55 36 34 32 25 33 40 44 53 66 61 64 69 81 87 79 43 24 22 19 16 14 17 16 13 16 24 25 32 33 29 27 28 30 46 53 19 18 45 61 66 87 92 98
43 48 50 51 52 61 77 33 44 28 44 53 79 50 52 60 67 81 84 88 44 29 27 23 22 18 19 20 21 13 14 26 27 34 38 32 28 30 31 51 38 17 21 52 63 69 89 94 98
53 40 42 41 37 38 50 67 45 41 36 58 46 49 55 65 77 78 78 65 40 37 31 29 26 24 25 26 25 15 14 24 32 36 44 34 30 35 40 51 20 18 20 53 68 70 86 99 98
34 35 38 42 37 29 31 49 53 50 46 50 58 68 71 92 85 82 70 56 53 49 41 35 29 24 22 26 34 25 25 25 40 40 64 39 34 50 52 35 18 17 30 60 69 74 80 93 90

GFSSGP_700_rhum_117.txt.gz
RH
4 4 4 4 7 15 16 4 8 8 11 10 12 13 17 20 22 28 35 49 33 19 22 23 13 14 15 14 10 9 14 17 19 30 35 46 55 56 61 60 58 58 58 58 58 52 30 32 43
9 4 4 7 19 24 16 6 12 12 11 9 10 13 16 22 24 27 38 41 28 22 22 15 13 14 15 11 7 5 9 16 26 34 44 58 55 59 59 59 62 64 64 62 62 62 46 46 40
18 12 4 5 16 17 12 8 13 14 11 12 9 10 14 22 24 27 31 30 28 24 18 14 13 14 14 9 6 4 8 15 24 31 49 53 59 57 63 62 66 72 68 63 67 67 68 63 52
26 20 11 12 14 7 11 9 12 15 11 11 11 11 13 16 28 28 23 25 26 23 15 14 13 16 15 10 7 4 7 10 18 30 45 57 56 51 69 70 70 74 67 73 72 71 76 63 62
27 24 25 17 9 8 12 12 16 14 14 14 12 14 19 17 26 33 27 28 28 18 15 14 14 16 15 12 9 7 7 10 13 18 26 44 46 61 64 72 68 75 69 76 74 80 78 75 73
29 26 36 28 13 11 10 11 12 12 13 15 15 12 21 22 21 20 20 22 24 17 16 15 15 17 17 15 12 11 11 11 13 16 20 24 36 49 55 47 71 79 77 77 76 75 72 80 74
33 27 29 30 25 18 13 15 16 14 12 16 16 14 24 29 27 26 24 23 25 17 16 15 16 18 19 18 17 15 15 17 19 21 23 26 29 42 54 52 52 66 76 86 80 79 74 74 77
40 37 31 40 37 28 13 16 17 14 13 15 17 17 16 28 31 32 28 24 21 18 17 16 17 19 20 20 20 20 19 20 22 22 20 22 26 33 42 50 56 62 74 72 72 73 74 74 75
44 59 48 42 34 25 19 18 21 19 15 14 15 17 17 23 42 41 39 29 25 19 17 17 18 20 20 21 21 21 21 21 22 23 24 23 25 29 35 39 46 52 59 68 65 68 59 76 78
48 48 43 38 30 26 22 20 22 24 18 16 15 14 18 19 45 44 44 36 28 20 19 18 18 19 20 20 21 24 23 22 22 23 25 25 25 27 29 34 37 42 47 47 50 51 45 49 68
39 40 46 41 42 33 30 28 23 26 20 18 18 14 18 19 29 48 46 36 31 25 21 18 18 19 20 20 20 22 26 26 24 23 26 25 24 25 25 30 38 44 46 50 54 57 53 43 48
36 38 44 42 42 39 33 30 26 27 27 20 18 15 18 18 19 19 25 33 29 24 18 19 18 19 20 19 21 20 22 26 29 26 26 25 30 26 26 27 30 33 41 40 40 45 60 47 40
36 37 38 40 40 37 33 34 32 26 27 24 20 20 21 19 18 20 23 30 50 53 36 36 21 19 20 21 20 21 20 24 28 30 28 30 36 37 35 30 31 27 29 31 35 43 37 40 48
32 36 36 36 37 40 40 34 35 27 28 28 24 21 23 23 24 27 26 39 69 70 65 60 56 48 45 26 21 21 20 22 26 27 29 29 35 36 38 38 32 32 21 26 31 46 55 49 49
34 45 42 37 36 36 36 37 35 33 30 30 28 23 22 24 28 29 28 23 28 58 54 56 53 53 57 45 34 21 20 20 22 24 27 27 32 36 34 36 36 34 24 14 23 48 53 46 54
34 37 40 12 36 34 37 36 36 37 35 31 28 25 24 23 24 26 28 21 23 45 47 47 47 48 50 52 41 34 20 21 22 24 26 27 28 34 36 36 38 38 34 15 12 30 42 52 62
22 30 36 26 39 39 38 36 36 37 37 35 32 31 27 25 23 22 24 24 24 27 35 44 44 45 45 45 49 41 27 22 24 25 26 26 28 29 32 36 38 40 38 25 13 15 20 36 52
34 30 35 38 38 38 37 35 34 35 35 36 36 34 33 32 31 29 28 30 28 29 30 34 37 40 42 44 48 47 43 26 25 26 28 28 28 29 30 32 38 40 41 39 15 15 19 21 32
46 47 33 34 39 36 34 34 33 32 31 31 34 33 32 33 32 32 32 32 34 30 30 31 34 36 45 49 51 49 39 30 28 30 31 29 31 33 31 29 36 38 42 43 26 13 17 20 35
48 43 43 35 37 36 34 38 33 31 31 30 29 30 30 32 34 36 34 34 33 31 32 33 33 38 52 52 50 50 47 36 30 32 31 30 30 32 33 30 33 38 42 45 41 16 14 19 34
51 42 40 44 38 49 56 45 46 38 33 33 29 29 32 33 35 37 37 38 36 34 37 37 35 41 46 50 51 42 41 35 30 29 30 32 31 31 31 30 31 37 42 48 50 27 15 18 32
47 33 34 34 36 55 65 54 46 44 41 36 34 33 32 33 33 36 38 38 38 38 38 39 39 39 42 44 45 40 37 34 34 34 33 34 32 32 31 30 30 35 40 50 54 37 16 17 29
43 27 29 27 32 62 83 83 49 48 44 36 34 33 32 33 36 38 38 37 42 42 41 41 40 40 41 41 42 41 38 33 32 30 31 33 34 32 30 30 30 33 37 54 58 42 16 19 40
44 34 32 36 59 96 62 64 49 41 42 36 34 34 31 29 34 42 45 38 43 48 46 41 39 38 37 33 33 27 24 23 20 19 20 22 29 33 33 28 29 32 37 54 61 41 17 30 51
39 31 62 88 92 79 47 53 43 33 30 32 29 30 33 35 41 43 46 52 65 70 71 54 57 36 27 21 18 23 21 22 20 18 20 19 23 31 32 28 28 31 35 58 62 30 20 52 72
31 38 70 91 78 58 44 52 36 26 28 30 33 36 36 35 41 48 56 62 66 67 72 78 68 44 30 25 20 19 20 19 16 19 22 23 23 30 32 28 29 32 37 61 62 20 29 61 73
46 47 45 52 58 63 40 38 35 35 36 40 42 47 46 58 62 61 59 57 67 67 68 63 64 45 21 16 15 16 15 15 14 16 20 26 23 30 32 28 30 33 41 64 46 19 43 61 73
30 40 50 68 88 86 79 43 36 49 52 65 58 60 75 72 64 62 67 69 66 49 46 51 30 23 21 20 16 14 14 11 12 16 19 30 24 29 33 32 32 33 51 63 24 22 51 59 73
46 45 54 87 59 66 95 83 77 58 50 77 69 77 98 83 67 71 72 65 61 59 34 26 31 30 25 24 22 20 18 14 18 19 20 31 30 29 34 36 37 39 60 46 21 24 55 63 74
57 52 53 59 60 42 48 94 97 74 85 60 59 71 97 90 75 72 73 67 60 43 37 35 41 35 29 29 26 24 24 23 24 26 23 35 44 34 50 41 46 60 63 25 21 35 63 71 74

GFSSGP_700_rhum_120.txt.gz
RH
4 3 3 4 4 5 4 2 4 8 13 13 16 13 10 10 12 24 26 35 38 29 25 27 23 12 12 14 14 12 11 16 19 19 36 39 49 50 56 58 57 54 54 55 56 52 35 30 38
10 5 4 4 4 8 3 2 4 17 14 11 15 13 12 12 12 19 28 32 29 19 27 26 17 12 13 14 10 7 6 9 16 25 35 40 53 52 60 61 59 57 62 62 61 60 47 45 42
20 16 5 5 5 4 3 4 10 15 18 16 13 14 14 12 12 17 25 26 31 24 25 23 15 12 13 14 10 5 5 9 16 24 29 40 56 55 61 57 61 60 60 63 62 64 64 60 55
22 21 12 13 5 4 4 5 10 14 17 16 12 10 9 9 13 19 22 25 28 29 24 17 14 12 13 14 11 6 5 9 12 19 26 54 55 56 60 56 59 63 67 63 62 68 69 69 71
24 22 19 15 11 9 7 7 11 13 15 14 16 11 10 11 13 11 17 24 27 23 24 19 14 13 13 15 12 7 5 7 9 12 18 33 53 56 51 60 59 57 62 63 78 78 79 77 69
34 27 24 21 16 12 10 9 9 13 15 15 16 12 11 14 22 19 19 19 22 23 21 16 15 14 13 16 14 10 8 8 10 12 15 23 36 39 46 44 48 45 60 53 65 65 75 75 75
38 34 29 23 17 14 11 10 12 17 16 14 16 13 13 20 26 23 22 22 22 23 23 17 16 14 14 16 17 14 12 12 12 14 17 18 19 23 33 40 38 40 53 62 73 76 81 77 79
40 39 35 32 30 23 12 9 15 18 17 17 17 15 14 13 22 27 28 27 26 24 20 18 17 15 16 16 19 18 16 15 15 16 20 23 26 29 39 46 51 51 51 60 71 64 74 71 71
40 44 45 42 37 26 19 13 10 19 21 16 16 17 16 16 21 18 24 29 29 25 23 19 18 16 17 18 19 20 20 20 19 19 20 22 24 26 32 37 41 46 46 52 60 62 65 59 72
39 40 47 45 37 32 26 22 15 19 23 23 16 15 17 17 17 17 18 26 33 31 26 20 18 18 17 19 19 20 21 22 22 22 22 24 26 27 29 31 33 36 37 40 42 43 45 48 55
37 35 41 45 42 36 35 27 24 24 23 26 20 17 15 15 17 25 21 23 22 35 26 22 20 19 17 19 20 20 22 23 23 23 23 24 26 26 28 29 30 37 43 44 45 48 55 54 47
24 30 38 38 37 38 37 34 25 28 26 28 28 23 20 21 17 18 36 24 19 28 31 25 22 19 18 19 20 20 22 24 27 26 24 24 24 28 26 27 29 29 30 36 40 40 42 55 55
5 14 18 33 36 36 40 38 36 26 30 31 30 26 28 27 25 22 20 21 20 21 22 28 25 20 19 20 20 21 20 21 25 30 28 26 28 36 36 34 31 31 30 26 31 33 38 41 37
8 10 8 13 18 35 38 38 42 28 30 33 30 33 28 30 25 22 20 19 19 18 20 22 22 25 21 21 22 22 21 21 21 24 28 31 29 34 37 37 38 33 32 28 17 20 36 45 52
11 27 14 9 6 15 36 37 37 31 34 35 32 32 32 27 27 25 23 21 21 23 22 42 47 60 53 51 51 40 24 22 21 21 24 27 30 30 34 37 35 37 34 32 19 12 30 50 51
23 27 23 2 15 16 42 39 26 34 37 32 34 33 32 29 26 29 30 28 27 31 37 36 61 60 58 58 61 51 43 25 20 20 22 24 26 28 28 32 37 38 37 35 32 14 12 23 40
33 44 34 18 19 32 39 40 14 34 37 35 34 35 32 30 28 29 30 27 26 28 30 43 54 51 51 50 54 56 47 36 32 21 22 24 25 26 28 29 33 37 38 38 40 26 14 14 15
19 43 35 38 14 29 36 43 27 38 37 37 35 35 34 30 27 27 28 28 28 24 24 34 46 41 42 46 45 47 44 42 39 34 23 24 26 28 28 28 31 32 35 39 41 42 25 14 14
54 66 61 43 24 36 30 41 34 39 37 37 36 34 33 31 28 27 27 28 28 26 25 26 36 36 35 35 37 46 47 47 48 42 40 27 28 31 31 32 33 31 35 39 42 46 44 22 16
65 68 78 70 44 45 40 32 41 37 37 37 34 34 31 30 31 31 30 31 32 31 28 28 29 31 34 40 41 49 66 65 63 52 43 34 30 31 31 33 35 34 34 39 41 47 50 42 20
80 66 72 82 53 46 53 49 32 34 38 36 34 32 31 30 33 32 33 33 33 34 33 31 31 30 31 34 50 67 67 65 55 47 48 36 33 32 34 34 35 34 34 35 43 47 52 53 30
96 75 74 66 60 48 43 72 51 48 42 38 35 32 33 30 30 32 32 36 34 34 34 36 34 32 35 39 56 56 57 53 50 48 43 40 38 36 36 35 34 36 34 34 39 48 53 58 47
84 95 63 71 52 46 42 70 62 54 50 42 39 35 33 31 30 39 37 38 37 36 35 38 41 41 42 40 44 46 48 49 44 41 41 43 36 35 34 34 34 34 33 33 37 47 51 64 59
75 76 60 58 47 53 50 73 54 53 43 40 39 36 34 31 31 38 44 45 42 42 43 44 44 46 43 43 46 43 42 41 41 42 40 36 27 24 26 32 34 33 34 34 38 50 52 63 63
65 65 70 69 73 83 59 92 56 44 44 39 38 41 37 36 46 46 49 49 49 48 49 50 54 57 59 58 50 48 43 40 36 34 31 27 40 28 26 22 29 32 32 34 39 50 53 65 63
62 64 55 77 76 74 65 68 50 32 30 30 39 51 44 61 65 49 51 58 62 59 55 46 44 45 45 44 42 40 38 32 24 20 19 23 26 35 30 22 23 32 32 32 38 51 53 67 49
54 48 27 50 72 59 54 45 35 34 37 36 40 44 54 69 64 60 56 55 60 64 69 69 65 54 46 42 40 33 22 24 20 18 17 18 33 22 22 24 21 31 33 31 37 49 47 65 30
57 33 63 64 86 78 79 60 81 77 54 49 54 57 53 62 65 70 74 66 73 73 75 74 69 66 58 45 33 21 19 15 15 13 12 14 20 18 21 26 25 31 33 31 38 46 50 62 24
63 54 53 67 83 92 94 99 100 96 77 63 80 75 71 74 78 84 79 73 72 70 65 61 58 49 33 22 17 15 14 16 14 14 14 14 24 42 18 23 32 68 35 33 41 44 58 41 26
85 80 73 65 96 94 88 96 100 99 100 96 100 93 73 69 76 80 78 73 67 55 46 43 38 25 21 19 24 25 27 26 17 18 22 21 31 54 22 24 28 82 47 40 45 49 63 26 28